Regional Weather Roundup
Issued by NWS Sterling, VA

Home | Current Version | Previous Version | Graphics & Text | Print | Product List | Glossary On
Versions: 1 2 3 4 5 6 7 8 9 10 11 12 13 14 15 16 17 18 19 20 21 22 23 24 25 26 27
000
ASUS41 KLWX 261011
RWRLWX

REGIONAL WEATHER ROUNDUP
NATIONAL WEATHER SERVICE BALTIMORE MD/WASHINGTON DC
600 AM EDT WED APR 26 2017

Note: "FAIR" indicates few or no clouds below 12,000 feet
with no significant weather and/or obstructions to visibility.
 TC=TEMPERATURE CELSIUS

 * =Non NWS site. Station does not report precipitation (e.g. rain,
    snow, etc.), thunder, or fog.

DCZ001-MDZ009-015-VAZ040>042-051-053>054-261100-
WASHINGTON METRO

CITY           SKY/WX    TMP DP  RH WIND       PRES   REMARKS
WASHINGTON NAT CLOUDY    58  57  97 NW8       29.72R
DULLES         DRIZZLE   56  54  93 N8        29.72S FOG
ANDREWS AFB    DRIZZLE   57  55  94 N10       29.70R
FT BELVOIR     CLOUDY    58  55  91 NW5       29.71S
QUANTICO       CLOUDY    58  57  97 N9        29.72R
COLLEGE PARK*  CLOUDY    56  55  94 NW3       29.71R
LEESBURG*      CLOUDY    55  55 100 N7        29.74S FOG
MANASSAS*        N/A     57  56  96 N8        29.73R FOG

$$

MDZ006>007-011-014-261100-
BALTIMORE METRO

CITY           SKY/WX    TMP DP  RH WIND       PRES   REMARKS
BWI AIRPORT    CLOUDY    56  56 100 N7        29.70S
MD SCIENCE CTR   N/A     58  54  86 MISG      29.71R
MARTIN STATE   CLOUDY    57  57 100 NW7       29.71R
ANNAPOLIS      CLOUDY    59  32  36 NW9       29.69R
FORT MEADE*    CLOUDY    55  54  94 N6        29.72F

$$

MDZ012-015-019>023-261100-
MARYLAND EASTERN SHORE

CITY           SKY/WX    TMP DP  RH WIND       PRES   REMARKS
OCEAN CITY     FOG       54  54 100 CALM      29.64S VSB 3/4
SALISBURY      FOG       57  57 100 NW7       29.65R VSB 1/4
BAY BRIDGE AP* CLOUDY    57  55  94 NW8       29.69R
CAMBRIDGE*     CLOUDY    57  55  94 NW8G14    29.67S FOG
EASTON*        DRIZZLE   57  55  94 N6        29.71R

$$

MDZ017>025-261100-
SOUTHERN MARYLAND

CITY           SKY/WX    TMP DP  RH WIND       PRES   REMARKS
PATUXENT RIVER CLOUDY    57  57 100 NW10      29.68R
ST INIGOES     NOT AVBL
LEONARDTOWN*   CLOUDY    55  54  94 NW6       29.71R

$$

MDZ003>005-261100-
NORTH CENTRAL MARYLAND

CITY           SKY/WX    TMP DP  RH WIND       PRES   REMARKS
FREDERICK*     NOT AVBL
HAGERSTOWN APT CLOUDY    56  55  97 N7        29.74R FOG
WESTMINSTER*   CLOUDY    55  55 100 N7        29.72S FOG

$$

MDZ501>502-261100-
WESTERN MARYLAND

CITY           SKY/WX    TMP DP  RH WIND       PRES   REMARKS
OAKLAND*       FOG       45  45 100 SW3       29.78R VSB<1/4
CUMBERLAND*    MOCLDY    55  55 100 CALM      29.80R

$$

VAZ025>031-261100-
SHENANDOAH VALLEY

CITY           SKY/WX    TMP DP  RH WIND       PRES   REMARKS
WINCHESTER*    CLOUDY    54  52  94 NW3       29.75R FOG
FRONT ROYAL*   CLOUDY    54  54 100 CALM      29.75R
LURAY*         CLOUDY    52  52 100 CALM      29.76R FOG
NEW MARKET*    CLOUDY    52  51  96 W5        29.76R VSB 1/4
STAUNTON*      FOG       46  46 100 CALM      29.79R VSB 1
WAYNESBORO*    CLEAR     51  51 100 CALM      29.77R

$$

WVZ021-048>050-054>055-261100-
EASTERN WEST VIRGINIA PANHANDLE

CITY           SKY/WX    TMP DP  RH WIND       PRES   REMARKS
MARTINSBURG    CLOUDY    55  54  96 NW3       29.74R FOG
PETERSBURG*    CLOUDY    55  55  99 CALM      29.78S FOG

$$

VAZ036>039-050-261100-
CENTRAL FOOTHILLS

CITY           SKY/WX    TMP DP  RH WIND       PRES   REMARKS
CHARLOTTESVILL CLEAR     53  52  96 SW3       29.72S
CULPEPER*      CLOUDY    57  56  96 N6        29.74R
ORANGE*        CLOUDY    54  52  94 CALM      29.73R
GORDONSVILLE*  MOCLDY    53  53 100 CALM      29.72S
WARRENTON*     CLOUDY    58  54  86 N6        29.72S

$$

VAZ055>057-261100-
NORTH AND CENTRAL PIEDMONT

CITY           SKY/WX    TMP DP  RH WIND       PRES   REMARKS
FREDERICKSBRG* CLOUDY    58  58 100 N5        29.71S
STAFFORD*      CLOUDY    56  56 100 N6        29.76R FOG

$$

NCZ024-NYZ072-PAZ021-071-VAZ022-071-261100-
OTHER REGIONAL OBSERVATIONS

CITY           SKY/WX    TMP DP  RH WIND       PRES   REMARKS
NEW YORK CITY  LGT RAIN  54  53  97 VRB7      29.78S FOG
PHILADELPHIA   CLOUDY    56  55  97 NE13G22   29.70S
PITTSBURGH     PTCLDY    50  50 100 CALM      29.77R
ROANOKE        CLEAR     53  52  96 CALM      29.79R
RICHMOND       DRZL/FOG  58  58 100 NW5       29.72R VSB 3/4
RALEIGH        MOCLDY    57  55  93 CALM      29.78R

$$

ANZ530>537-261100-
MARINE OBSERVATIONS

STATION/POSITION TIME  TEMP    WIND        PRES
                       AIR SEA DIR/SP/G
                 (UTC) (F)     (DEG/KT/KT) (MB)
THOMAS PT LIGHT  1000   57 56  330/ 10/ 10   N/A
BALT KEY BRIDGE  0948   57     330/ 10/ 11 1005.6R
COVE POINT       0948   57     350/ 16/ 18 1005.7R
LEWISETTA        0948   58 60  340/  6/ 10 1005.1R
SOLOMONS ISLAND  0942   57 60  330/  7/ 11   N/A
PINEY POINT      0948          360/ 10/ 11   N/A

$$





USA.gov is the U.S. government's official web portal to all federal, state and local government web resources and services.